Dewpoint
-6 -5 -2 0 -4 -5 -2 -2 -4 -3 -2 -4 -2 3 9 12 13 14 14 14 14 13 7 7 3 8 12 13 13 12 10 9 4 -4 -7 -4 -0 -0 -0 2 -2 2 5 6 5 4 7 8 6
-3 -3 -0 -3 -5 -4 -0 -2 0 -0 -1 -2 3 8 9 12 14 15 15 14 13 12 7 4 1 4 10 11 11 11 10 5 -2 -7 -7 -7 -5 -5 -3 -4 -1 2 1 2 4 7 8 7 6
-1 -2 -2 -3 -4 -1 0 -1 1 1 5 5 8 10 12 15 14 14 14 14 13 11 10 3 3 2 4 7 7 8 4 -1 -7 -8 -8 -6 -5 -5 -5 -4 -2 -0 -0 2 5 5 5 5 6
1 0 -2 -3 -0 -2 -2 -2 0 4 5 7 8 12 15 16 15 15 14 13 13 11 9 3 4 4 2 1 -0 -1 -3 -5 -8 -8 -6 -3 -3 -5 -4 -3 -2 -1 1 2 3 4 4 5 6
-0 -3 -1 -0 -1 -3 -5 -4 -2 2 4 8 10 14 15 15 15 15 14 13 13 12 7 5 6 6 3 -1 -4 -4 -5 -8 -7 -5 -2 -1 -2 -4 -4 -3 -2 -1 0 1 2 2 2 2 4
-4 -4 0 0 -3 -6 -8 -6 -4 -2 0 5 11 13 15 15 15 15 14 14 14 13 5 5 6 7 6 1 -4 -4 -5 -7 -6 -3 -0 -0 -2 -4 -3 -2 0 -1 -1 -1 -2 -3 -2 -2 -1
-4 -4 -1 -1 -4 -7 -10 -8 -8 -7 -6 -6 10 12 14 15 15 15 15 14 14 12 7 5 6 7 7 5 -1 -3 -4 -6 -4 -2 1 -0 -3 -3 -2 0 3 1 -1 -1 -5 -6 -5 -6 -5
-2 -3 -1 -1 -6 -8 -11 -8 -9 -10 -10 -9 -6 -1 4 10 15 15 15 15 14 14 10 7 6 7 7 6 3 -2 -3 -4 -3 0 1 0 -3 -2 1 1 4 4 3 0 -6 -7 -7 -6 -6
-2 -4 -4 -7 -9 -10 -11 -9 -10 -11 -10 -11 -10 -9 -7 2 14 15 15 14 14 14 14 13 12 7 7 7 6 2 -1 -2 -2 1 2 2 4 -1 2 6 5 6 5 3 1 4 5 4 2
-7 -8 -10 -12 -12 -11 -11 -11 -11 -10 -9 -8 -6 -4 -4 -2 2 11 14 14 14 14 14 14 13 12 7 11 8 6 1 -0 0 2 1 9 9 9 9 3 6 7 7 5 6 7 8 8 8
-11 -10 -12 -12 -13 -13 -12 -10 -9 -10 -7 -5 -3 -4 -3 -3 -1 1 7 13 14 14 14 12 11 13 11 13 12 12 9 9 7 6 5 12 10 7 8 6 6 7 8 8 7 6 9 12 11
-11 -12 -12 -13 -13 -12 -11 -9 -8 -6 -5 -4 -4 -3 -3 -3 -1 -1 0 2 12 14 14 14 14 13 10 14 13 13 13 11 7 2 -1 11 11 9 9 8 10 11 10 11 11 11 12 10 11
-11 -12 -12 -12 -12 -12 -11 -9 -7 -5 -5 -5 -5 -4 -3 -3 -2 -0 -0 1 2 4 13 14 13 14 13 12 14 14 13 12 11 5 -4 7 10 12 11 10 10 11 11 12 12 11 12 11 10
-11 -11 -11 -11 -12 -12 -13 -11 -8 -4 -5 -5 -5 -5 -4 -3 -2 -1 -1 0 -0 -1 -5 3 12 13 14 13 13 14 14 14 10 10 5 -5 2 10 11 11 10 10 10 11 11 11 11 12 12
-11 -11 -11 -11 -13 -13 -12 -9 -6 -6 -6 -5 -5 -5 -5 -4 -2 -1 -0 0 -1 -2 -4 -4 0 7 15 14 13 13 13 14 14 12 9 4 -5 -2 6 11 11 10 10 11 11 11 12 11 12
-13 -14 -14 -10 -12 -14 -13 -8 -5 -6 -7 -5 -5 -5 -5 -4 -3 -1 0 1 1 -4 -6 -5 -1 5 5 15 15 14 13 14 14 14 13 10 6 -3 -4 8 11 11 10 10 10 10 10 10 10
-14 -13 -12 -11 -12 -14 -15 -10 -4 -5 -6 -6 -6 -5 -4 -4 -4 -1 -0 1 1 -2 -3 -3 -3 0 5 8 13 14 14 14 13 14 13 12 11 7 -1 3 7 9 11 11 10 10 9 9 9
-12 -11 -11 -10 -10 -13 -12 -9 -5 -4 -5 -5 -5 -5 -5 -4 -4 -2 -0 1 1 -2 -1 -0 1 -0 6 8 12 13 14 14 15 14 14 14 13 12 8 4 4 5 9 10 10 10 10 9 8
-13 -14 -11 -11 -11 -11 -10 -6 -4 -3 -3 -3 -4 -5 -6 -4 -4 -3 -1 0 1 1 -2 -1 3 1 2 7 10 12 13 14 13 14 14 14 13 14 13 10 7 5 7 8 10 11 11 10 9
-14 -14 -10 -12 -12 -10 -10 -6 -4 -3 -2 -3 -4 -5 -5 -4 -4 -4 -3 -1 0 1 1 -0 1 3 4 4 6 8 11 12 13 14 14 14 14 13 14 13 11 9 8 8 8 7 10 9 9
-13 -12 -12 -12 -11 -10 -9 -6 -4 -3 -4 -6 -5 -6 -5 -4 -3 -3 -3 -2 -1 -0 0 1 1 1 3 3 5 6 7 9 11 13 13 13 14 14 13 14 14 12 10 9 6 4 -1 8 9
-12 -14 -12 -12 -11 -10 -8 -11 -6 -4 -7 -10 -10 -9 -7 -5 -4 -3 -2 -2 -2 -1 -0 -1 0 1 1 1 3 4 7 7 9 12 12 13 13 12 13 14 14 14 13 11 9 5 3 6 6
-12 -11 -10 -10 -9 -8 -8 -8 -5 -6 -6 -10 -11 -10 -9 -7 -5 -4 -3 -3 -2 -1 -0 -1 -2 -1 1 1 1 4 5 5 8 9 10 11 12 13 13 13 13 13 13 13 12 11 8 6 7
-11 -9 -8 -7 -7 -3 -6 -8 -8 -7 -7 -9 -11 -11 -10 -9 -7 -4 -4 -3 -3 -2 -1 -0 -2 -3 -1 1 2 3 3 3 4 6 8 10 11 12 12 12 12 13 13 13 13 13 12 11 9
-10 -8 -2 -4 -1 -3 -6 -9 -7 -8 -9 -9 -10 -10 -9 -9 -8 -7 -4 -4 -3 -3 -3 -1 -2 -4 -3 -1 -0 2 3 3 4 4 5 7 9 10 12 12 10 11 12 12 11 13 13 12 12
-10 -8 1 1 -7 -11 -11 -12 -1 -10 -8 -7 -8 -7 -10 -11 -9 -8 -4 -3 -3 -3 -3 -2 -3 -4 -4 -2 -2 0 2 2 3 3 2 4 6 8 10 11 12 12 11 11 9 10 13 13 13
-10 -3 -7 -3 -7 -6 -11 -9 -7 -12 -10 -10 -11 -11 -8 -7 -7 -7 -3 -1 -3 -3 -3 -1 -2 -4 -4 -3 -3 -3 -1 1 2 2 3 2 2 4 6 9 11 11 10 12 8 8 11 12 13
-8 -7 -3 -2 -1 -1 -12 -12 -9 -11 -10 -10 -7 -6 -6 -5 -4 -3 -2 -0 -2 -3 -3 -1 -2 -4 -4 -3 -6 -8 -6 -4 1 2 2 2 3 2 2 5 9 10 10 11 10 11 9 12 12
-9 -7 -5 -4 -3 -2 -7 -13 -11 -10 -8 -6 -5 -5 -5 -4 -3 -3 -1 -1 -2 -3 -3 -2 -2 -3 -3 -4 -4 -13 -14 -11 -6 1 2 2 2 3 1 2 5 9 10 11 11 12 11 12 12
-11 -9 -8 -2 -1 -5 -7 -10 -15 -11 -8 -7 -5 -5 -5 -4 -4 -3 -1 -2 -2 -2 -3 -2 -3 -3 -3 -4 -4 -5 -10 -13 -12 -11 -2 1 1 2 3 3 3 4 7 9 11 11 11 12 11
Wind_Speed
4 4 4 2 4 5 11 8 2 8 2 4 4 3 14 17 10 5 6 6 17 18 18 16 14 16 18 17 16 16 14 11 9 11 13 14 14 12 12 13 14 17 17 17 18 18 18 17 17
3 3 2 3 5 8 11 12 12 9 9 3 4 6 12 11 15 6 5 14 18 18 19 18 16 16 17 16 15 14 13 10 10 12 13 14 13 12 12 13 16 17 18 19 19 18 18 18 17
3 4 3 2 8 10 11 14 12 9 12 7 7 13 10 10 13 4 9 18 18 18 18 18 15 15 14 14 14 13 11 11 12 13 13 13 12 12 13 14 17 18 19 19 19 18 17 16 16
3 2 1 11 17 14 16 14 16 5 13 16 8 15 11 20 8 5 14 16 16 16 17 17 14 13 13 12 11 11 11 11 12 12 13 12 12 12 14 15 17 18 19 18 18 17 17 16 15
3 2 8 15 17 14 17 18 21 19 12 17 19 16 11 22 14 10 13 13 13 14 16 17 14 11 11 9 8 10 10 11 11 12 12 12 12 13 14 16 17 18 17 17 18 17 17 16 14
3 3 13 12 16 14 18 18 19 22 23 28 19 15 13 21 11 10 9 11 12 13 17 17 15 11 9 8 7 8 9 10 11 11 11 10 11 13 14 16 16 16 17 17 16 16 16 15 14
7 5 14 14 13 16 17 12 21 24 25 30 15 17 15 24 16 4 9 10 11 13 15 16 14 12 9 7 7 7 8 10 10 10 10 10 11 12 15 15 15 17 16 16 16 16 16 15 14
6 9 14 7 11 10 16 13 18 23 27 13 16 12 13 24 14 7 6 8 9 10 13 14 13 12 10 9 7 7 8 9 10 10 10 10 11 12 14 14 16 16 15 15 16 16 16 15 14
5 6 11 9 10 10 15 8 14 16 27 32 25 22 18 19 12 13 6 5 5 8 8 10 11 13 12 11 9 8 9 10 11 11 11 11 11 13 14 14 16 15 14 14 16 17 16 15 14
8 9 7 6 15 15 25 21 10 19 24 26 27 26 24 22 21 17 13 5 3 4 7 7 11 12 13 11 12 11 11 12 13 13 14 11 12 12 13 15 16 15 15 15 15 15 14 12 11
8 9 10 12 9 5 10 25 26 7 18 23 23 23 24 26 26 23 17 9 2 4 5 11 12 13 15 11 13 12 13 12 14 16 16 12 13 14 15 16 17 16 16 15 15 14 11 8 8
16 15 14 14 13 13 15 19 27 26 19 16 18 19 23 27 25 24 22 18 6 2 5 8 11 16 19 14 16 13 14 15 15 18 20 15 15 15 14 14 15 14 14 12 13 11 10 11 9
23 21 20 18 19 18 15 23 20 20 17 16 17 21 24 24 23 21 20 19 18 10 7 10 14 15 21 21 17 18 18 18 17 19 21 20 17 16 16 16 16 15 14 14 13 12 12 12 10
23 23 19 12 13 12 17 16 13 15 15 17 19 21 21 22 22 21 22 21 19 18 14 12 17 17 18 23 24 19 19 19 24 21 22 24 23 19 18 18 17 17 16 14 14 13 11 11 10
15 15 17 18 7 6 9 17 13 12 13 17 19 20 20 21 21 23 21 21 21 19 20 17 12 18 18 20 24 30 25 21 21 24 26 26 26 26 23 20 19 18 17 17 17 15 14 13 12
5 2 4 13 9 7 9 8 9 11 13 16 17 18 18 20 20 21 21 20 20 19 20 20 17 15 16 22 21 24 28 29 24 22 26 30 29 29 28 23 22 21 20 19 18 17 16 15 14
4 6 7 6 14 2 3 8 7 10 11 14 16 17 18 20 21 22 22 21 21 20 20 20 19 18 16 20 22 23 25 29 32 28 28 32 32 32 31 28 25 24 23 21 20 19 19 17 16
8 8 7 6 9 6 9 9 7 6 9 12 14 16 17 19 21 21 21 22 22 20 20 19 18 17 15 15 21 24 23 27 31 33 35 33 34 35 35 32 29 29 25 24 23 22 20 19 17
10 9 9 6 6 1 5 7 6 7 8 11 14 16 17 17 17 19 20 21 22 23 21 21 22 21 17 15 15 19 23 25 27 32 35 37 35 38 37 37 34 31 29 29 26 24 23 21 19
7 8 7 4 6 2 2 6 5 6 7 10 12 14 16 18 20 23 23 22 23 24 24 23 22 23 20 17 15 16 20 24 24 29 33 35 38 33 37 41 37 35 31 31 32 31 25 24 21
11 8 4 3 3 3 1 5 3 4 4 8 10 12 14 17 20 22 23 24 23 24 25 25 24 22 21 20 17 15 15 19 25 23 27 33 35 36 32 35 43 35 38 31 35 35 35 28 24
5 6 1 2 5 1 3 1 5 2 3 9 11 13 15 17 18 20 22 23 23 23 23 24 24 23 21 22 20 19 16 16 15 22 21 24 36 34 38 30 32 44 37 36 33 34 35 32 30
5 4 1 2 3 6 5 4 8 3 2 5 9 12 16 17 18 20 20 20 21 22 22 23 24 22 22 21 20 19 18 18 17 18 26 29 23 28 32 33 30 37 40 36 38 30 38 34 32
5 3 4 4 2 3 3 5 7 2 4 3 4 11 15 19 19 18 18 17 18 20 21 21 24 24 23 22 21 20 20 19 20 19 19 20 24 26 35 44 28 27 29 32 35 38 37 41 38
2 3 1 2 3 2 2 5 7 3 5 7 9 12 17 21 21 20 19 17 17 19 20 21 22 24 24 23 23 21 21 19 19 20 20 20 21 20 14 21 39 31 23 22 23 30 34 36 38
7 4 2 3 2 2 3 2 3 6 8 9 12 16 21 22 23 20 16 15 16 16 18 19 21 23 23 23 24 22 22 19 18 20 21 21 20 20 19 25 15 30 37 36 34 31 31 37 39
3 4 2 1 0 4 2 2 5 2 4 8 14 19 22 20 19 16 14 14 14 15 17 17 20 21 22 23 23 23 22 22 21 20 19 21 23 22 19 20 20 22 44 37 42 42 39 35 35
5 3 2 2 1 3 4 5 1 3 7 11 14 15 15 15 15 15 15 13 13 14 16 17 18 20 22 22 24 24 25 24 23 21 20 20 20 22 21 19 19 20 31 34 33 39 44 35 34
3 3 2 1 2 2 4 2 3 2 6 10 12 12 13 13 15 16 14 12 13 13 14 16 19 20 22 22 23 26 26 25 24 23 22 21 21 20 21 21 20 21 24 20 27 25 39 33 35
1 3 4 3 2 3 4 4 6 1 5 7 9 9 11 12 14 15 11 11 14 12 14 16 19 21 21 22 22 24 25 26 25 25 24 24 23 20 19 20 20 19 23 23 26 27 24 34 36
Wind_Direction
354 342 339 283 196 109 70 33 19 15 42 14 334 339 61 36 4 37 104 141 142 144 147 142 151 152 158 166 168 166 161 155 152 148 140 135 136 136 135 135 135 130 127 126 125 121 119 115 114
3 1 332 263 189 123 66 28 31 25 6 330 101 155 50 65 36 69 95 135 142 143 146 144 149 151 160 167 170 170 166 166 161 151 142 140 139 135 136 133 132 131 129 126 121 117 116 111 114
37 35 291 87 68 66 61 30 12 61 52 50 106 58 42 357 10 40 144 143 143 144 145 146 148 149 155 166 170 173 176 169 159 150 144 141 138 136 136 133 131 129 126 122 121 119 115 114 113
47 30 210 105 97 70 50 28 24 62 49 36 124 79 80 23 17 67 134 141 142 143 148 146 147 145 150 159 168 173 171 165 156 148 147 145 141 139 137 130 126 126 124 123 122 120 118 116 114
56 152 112 100 84 65 55 32 33 50 52 39 80 74 64 23 48 95 128 140 141 142 151 149 149 146 148 155 164 168 166 162 156 152 151 147 145 142 135 130 128 127 127 125 124 123 122 120 119
127 262 137 105 86 50 47 32 37 43 52 35 52 74 56 21 44 93 133 143 146 146 155 156 157 157 150 148 160 168 167 164 161 158 153 151 148 142 137 133 133 133 130 127 126 125 125 125 123
79 73 102 118 88 44 16 30 36 45 36 31 42 61 43 20 28 74 134 148 150 157 162 165 166 167 164 156 160 174 173 171 168 163 158 155 153 149 142 137 137 135 131 128 127 128 127 125 121
76 111 113 72 75 43 5 54 47 52 45 45 42 35 5 0 22 51 113 143 148 154 167 171 175 177 178 174 171 178 182 179 175 170 166 164 162 159 153 147 147 142 138 133 131 129 126 123 120
49 111 97 65 49 50 28 63 52 70 62 51 51 43 26 17 60 52 95 142 153 161 170 178 180 189 194 192 188 188 190 190 186 183 180 174 171 171 167 166 157 151 147 143 138 134 131 128 124
81 88 67 57 104 79 54 53 47 73 46 36 37 35 34 35 38 43 70 76 214 209 195 204 197 200 204 198 204 199 200 200 195 193 192 177 187 179 174 184 173 163 157 156 153 146 139 130 127
54 91 104 59 113 57 60 58 45 48 40 32 28 27 31 35 36 34 30 48 85 309 259 243 223 214 210 206 209 205 205 201 204 202 198 196 194 200 190 193 188 181 170 170 172 167 154 161 157
102 80 72 67 118 84 77 75 60 56 54 38 35 33 35 35 33 30 26 19 359 352 225 231 241 247 230 218 220 215 210 213 213 215 212 205 203 205 196 199 199 198 193 192 182 186 189 175 171
94 103 85 91 90 85 80 71 70 47 38 34 33 33 33 32 30 28 24 19 13 354 272 238 236 238 247 236 232 221 219 222 219 222 223 213 210 214 209 206 205 204 207 207 203 202 197 193 185
112 97 81 74 72 70 73 63 57 39 28 30 31 31 31 29 24 21 18 13 12 5 360 302 267 247 244 248 239 233 233 229 231 228 228 226 221 219 217 216 213 213 213 211 213 214 213 209 206
111 112 79 43 75 57 299 42 45 33 34 37 34 28 25 26 23 21 14 9 3 359 356 356 326 271 245 248 252 254 240 234 235 233 237 234 231 229 221 222 224 221 222 216 218 221 220 220 220
127 126 151 46 32 15 214 74 52 34 39 42 36 33 29 23 22 17 14 8 2 353 349 349 347 320 266 235 245 260 251 242 235 236 238 241 236 232 233 227 228 227 225 226 226 225 226 228 228
38 101 77 102 29 25 355 115 75 53 50 52 44 34 28 23 19 15 11 8 4 353 346 343 342 335 317 258 253 254 262 262 248 242 242 242 240 238 235 231 230 229 229 229 227 229 226 231 230
125 116 85 63 24 44 74 97 91 70 54 50 42 33 25 20 15 9 7 7 5 357 351 343 343 338 330 301 270 253 261 267 257 246 249 248 244 242 241 235 233 232 228 230 230 228 233 230 235
102 107 116 86 30 316 78 97 90 69 48 41 33 28 28 25 14 8 8 7 7 3 357 350 347 341 342 330 299 264 259 252 268 252 255 259 255 249 243 241 238 233 229 228 230 229 229 235 232
97 105 93 96 25 275 63 107 92 57 55 41 25 29 24 18 14 11 7 7 8 4 2 356 351 347 345 340 331 307 272 268 260 269 267 263 261 253 250 244 238 236 232 229 229 232 229 234 233
64 55 59 32 23 80 179 157 141 81 65 25 23 22 25 23 12 8 8 6 6 6 3 1 357 350 344 337 335 326 300 275 268 275 271 272 271 260 250 249 244 235 237 231 234 234 236 231 232
94 15 295 232 240 87 312 99 171 76 87 38 32 25 19 14 13 7 2 3 5 4 3 1 359 357 351 339 340 336 337 321 284 258 268 273 264 266 259 257 255 245 235 237 236 237 237 235 233
46 322 278 202 157 184 58 253 104 211 225 29 31 24 16 11 5 2 359 355 354 355 358 359 359 355 357 354 343 342 333 325 305 296 266 265 271 252 265 258 260 247 239 239 244 238 246 240 237
332 174 149 167 214 203 88 330 126 33 340 287 335 357 359 357 352 349 348 348 348 347 351 355 357 356 356 358 355 346 338 330 320 310 303 287 271 270 276 242 239 242 248 251 252 254 249 251 245
50 197 169 204 208 31 87 278 38 309 275 289 313 322 335 338 339 334 336 340 343 346 347 348 351 354 354 355 355 354 346 341 332 323 316 309 293 273 259 250 243 257 254 253 261 258 252 247 249
44 16 30 282 291 350 195 242 93 305 278 277 287 306 320 324 324 323 324 330 338 346 347 347 347 348 352 353 354 353 352 346 341 331 321 318 313 295 274 264 226 254 261 259 265 270 265 258 252
55 61 20 130 53 263 165 139 228 11 324 311 322 320 323 327 329 324 323 324 335 344 350 349 348 347 349 351 351 351 349 350 346 340 334 322 316 311 298 268 264 249 244 265 258 269 272 267 257
35 97 187 73 253 262 220 255 265 14 343 340 337 341 339 337 338 335 327 325 333 340 345 349 350 349 346 347 350 347 348 345 346 345 341 335 327 316 307 300 279 255 253 248 250 261 258 264 262
156 152 107 132 291 288 301 168 130 31 347 344 345 346 341 337 336 332 326 323 329 333 342 347 348 348 346 346 346 349 348 345 343 344 342 339 335 330 318 308 300 285 246 254 254 256 257 261 267
273 198 197 240 158 256 301 288 141 93 333 337 340 344 343 339 340 337 333 333 336 331 339 345 348 348 343 342 343 344 345 345 342 338 338 341 339 335 331 323 316 305 285 269 248 249 257 249 253
Height
1538 1537 1536 1536 1531 1526 1537 1540 1536 1533 1530 1533 1534 1531 1531 1536 1539 1545 1553 1552 1554 1556 1558 1561 1564 1565 1567 1570 1571 1572 1573 1574 1574 1575 1575 1575 1576 1577 1577 1578 1578 1579 1579 1579 1580 1581 1582 1583 1583
1538 1537 1537 1532 1524 1528 1544 1540 1538 1536 1537 1535 1535 1533 1534 1544 1550 1552 1554 1554 1557 1559 1561 1563 1566 1568 1570 1572 1574 1575 1576 1576 1577 1577 1577 1577 1578 1579 1580 1581 1581 1582 1582 1582 1583 1584 1585 1585 1586
1538 1538 1536 1528 1527 1542 1546 1544 1540 1538 1538 1535 1532 1537 1543 1556 1555 1556 1556 1557 1560 1562 1565 1566 1570 1571 1574 1575 1577 1578 1579 1579 1579 1579 1580 1580 1581 1582 1583 1583 1584 1585 1585 1585 1586 1587 1588 1589 1590
1539 1541 1538 1532 1548 1549 1548 1548 1543 1536 1539 1538 1536 1543 1556 1561 1559 1559 1560 1562 1564 1566 1568 1570 1573 1575 1577 1578 1580 1581 1581 1582 1582 1582 1582 1583 1583 1584 1585 1586 1587 1588 1588 1589 1589 1590 1591 1592 1593
1540 1539 1536 1544 1550 1551 1553 1553 1549 1543 1543 1545 1540 1554 1559 1562 1563 1564 1565 1567 1569 1571 1571 1573 1576 1578 1579 1581 1582 1583 1584 1584 1585 1585 1585 1585 1586 1587 1588 1588 1589 1590 1591 1592 1592 1593 1593 1594 1595
1540 1539 1539 1550 1555 1556 1558 1559 1554 1550 1552 1551 1550 1554 1565 1567 1565 1567 1569 1570 1571 1572 1573 1576 1578 1580 1582 1583 1585 1585 1586 1586 1587 1588 1588 1588 1589 1590 1591 1592 1592 1593 1594 1594 1595 1595 1596 1596 1597
1541 1534 1539 1550 1559 1561 1564 1564 1561 1559 1557 1559 1559 1559 1570 1569 1568 1569 1571 1572 1573 1573 1575 1578 1580 1582 1584 1586 1587 1588 1588 1588 1589 1590 1591 1592 1592 1593 1594 1595 1596 1596 1596 1597 1598 1598 1598 1599 1600
1548 1546 1554 1554 1564 1575 1570 1568 1569 1566 1570 1570 1565 1571 1576 1572 1573 1571 1573 1576 1577 1577 1577 1579 1581 1584 1585 1587 1589 1590 1591 1591 1592 1592 1593 1594 1595 1596 1597 1598 1598 1599 1600 1600 1600 1601 1601 1602 1602
1551 1548 1561 1572 1572 1582 1575 1571 1574 1574 1575 1576 1579 1583 1583 1577 1573 1573 1575 1578 1580 1581 1582 1582 1583 1584 1585 1587 1589 1591 1592 1593 1593 1594 1595 1596 1597 1598 1599 1600 1601 1601 1602 1603 1603 1603 1603 1603 1603
1554 1559 1575 1580 1580 1582 1582 1578 1578 1578 1579 1582 1584 1586 1584 1580 1575 1573 1574 1578 1583 1583 1583 1585 1585 1586 1587 1588 1588 1590 1592 1594 1595 1595 1596 1598 1599 1601 1602 1602 1602 1602 1603 1604 1605 1605 1605 1606 1606
1568 1575 1580 1583 1584 1583 1584 1583 1585 1577 1584 1590 1591 1590 1587 1583 1579 1579 1578 1578 1581 1584 1586 1584 1585 1586 1587 1590 1589 1590 1591 1593 1594 1596 1597 1599 1599 1599 1601 1602 1603 1604 1604 1605 1605 1606 1607 1609 1610
1576 1581 1583 1585 1585 1587 1587 1589 1588 1590 1596 1597 1596 1594 1591 1587 1585 1584 1584 1582 1581 1580 1580 1581 1585 1585 1586 1589 1588 1590 1591 1591 1592 1594 1595 1597 1598 1599 1601 1603 1604 1605 1606 1607 1607 1608 1609 1608 1608
1580 1586 1587 1590 1589 1590 1593 1594 1594 1597 1598 1598 1597 1594 1591 1591 1591 1589 1588 1586 1583 1580 1579 1580 1580 1581 1583 1585 1587 1587 1588 1589 1591 1591 1593 1595 1598 1599 1600 1602 1603 1604 1606 1607 1608 1609 1608 1608 1608
1587 1588 1590 1592 1593 1592 1592 1596 1595 1603 1602 1600 1597 1596 1595 1594 1593 1591 1588 1587 1584 1581 1580 1579 1578 1579 1580 1580 1582 1584 1586 1587 1587 1589 1590 1593 1594 1597 1599 1600 1601 1603 1604 1606 1607 1609 1609 1609 1609
1587 1588 1592 1597 1597 1597 1596 1598 1604 1606 1605 1602 1599 1597 1596 1596 1595 1593 1590 1587 1584 1583 1580 1577 1576 1576 1575 1576 1577 1579 1582 1584 1586 1586 1586 1588 1591 1593 1595 1599 1600 1601 1602 1602 1602 1605 1607 1609 1608
1586 1585 1581 1601 1598 1598 1595 1604 1610 1608 1605 1604 1603 1601 1600 1598 1596 1595 1592 1589 1586 1582 1579 1577 1575 1572 1571 1572 1572 1573 1575 1578 1580 1583 1583 1584 1587 1589 1591 1594 1596 1599 1599 1599 1600 1602 1604 1605 1607
1583 1584 1589 1597 1602 1597 1591 1598 1610 1610 1608 1606 1605 1603 1601 1600 1598 1596 1594 1590 1587 1582 1579 1575 1573 1570 1568 1568 1568 1569 1570 1572 1575 1577 1578 1579 1582 1584 1586 1588 1591 1593 1596 1596 1597 1599 1600 1603 1604
1586 1589 1597 1597 1604 1598 1598 1605 1610 1611 1609 1607 1607 1606 1603 1601 1600 1597 1594 1590 1587 1584 1580 1576 1572 1570 1567 1566 1566 1567 1567 1567 1568 1571 1572 1575 1577 1579 1580 1583 1585 1587 1590 1592 1593 1595 1596 1598 1601
1593 1593 1597 1603 1607 1601 1602 1605 1609 1611 1610 1610 1609 1608 1607 1605 1604 1601 1596 1593 1590 1585 1580 1577 1573 1568 1565 1563 1561 1562 1562 1562 1563 1564 1567 1567 1570 1573 1574 1576 1579 1580 1583 1585 1588 1590 1592 1594 1596
1598 1597 1601 1606 1607 1602 1602 1603 1608 1611 1613 1613 1611 1610 1609 1606 1604 1601 1597 1593 1589 1586 1582 1577 1574 1570 1567 1563 1561 1559 1558 1559 1559 1560 1559 1560 1562 1565 1566 1568 1571 1573 1576 1578 1580 1582 1586 1589 1591
1607 1606 1609 1607 1609 1606 1604 1603 1606 1611 1611 1611 1611 1611 1610 1608 1605 1602 1599 1596 1592 1586 1583 1580 1576 1571 1567 1562 1561 1558 1555 1553 1555 1555 1555 1553 1555 1556 1558 1559 1562 1567 1568 1571 1572 1575 1577 1583 1586
1602 1616 1614 1611 1601 1592 1605 1583 1602 1608 1608 1611 1612 1612 1611 1608 1606 1604 1601 1598 1594 1589 1585 1582 1578 1573 1567 1562 1559 1556 1554 1550 1548 1548 1548 1547 1546 1547 1550 1553 1552 1558 1562 1564 1566 1569 1571 1575 1578
1615 1617 1613 1609 1600 1599 1602 1594 1597 1607 1606 1610 1612 1613 1611 1609 1607 1604 1602 1599 1596 1592 1587 1584 1579 1575 1569 1563 1559 1556 1552 1549 1544 1543 1542 1542 1542 1536 1531 1544 1541 1550 1554 1557 1560 1563 1564 1567 1571
1618 1614 1611 1608 1604 1596 1608 1605 1593 1602 1608 1609 1612 1612 1611 1609 1607 1605 1603 1600 1596 1593 1588 1584 1580 1576 1570 1564 1560 1556 1552 1547 1543 1539 1537 1535 1534 1534 1535 1531 1531 1540 1545 1548 1551 1554 1557 1559 1562
1612 1610 1603 1601 1599 1597 1613 1607 1601 1611 1612 1611 1611 1610 1608 1607 1605 1603 1600 1598 1596 1592 1588 1583 1580 1576 1570 1565 1560 1555 1551 1547 1543 1538 1535 1531 1528 1528 1531 1522 1530 1529 1537 1540 1542 1545 1548 1551 1553
1617 1613 1613 1607 1593 1594 1609 1600 1608 1610 1610 1610 1610 1607 1606 1604 1603 1601 1598 1596 1593 1590 1587 1582 1579 1575 1570 1564 1559 1555 1550 1546 1543 1539 1534 1530 1528 1526 1525 1525 1516 1526 1528 1531 1534 1536 1540 1542 1544
1618 1617 1627 1624 1623 1611 1598 1605 1611 1607 1606 1606 1605 1605 1603 1602 1600 1598 1596 1594 1591 1588 1586 1582 1577 1574 1569 1564 1559 1554 1550 1545 1541 1537 1533 1529 1526 1524 1520 1519 1519 1519 1521 1522 1524 1525 1530 1533 1535
1621 1629 1623 1629 1621 1612 1593 1600 1597 1602 1604 1605 1605 1604 1603 1601 1599 1597 1595 1593 1590 1587 1584 1581 1577 1573 1569 1563 1558 1553 1548 1543 1539 1536 1532 1529 1526 1522 1519 1517 1515 1513 1516 1516 1516 1516 1524 1525 1525
1625 1623 1631 1629 1625 1613 1599 1581 1599 1604 1605 1605 1604 1603 1602 1601 1598 1596 1594 1592 1590 1586 1583 1580 1576 1572 1567 1562 1557 1552 1547 1543 1538 1534 1531 1527 1523 1520 1516 1514 1512 1508 1507 1507 1508 1507 1513 1513 1513
1625 1622 1622 1622 1631 1623 1616 1597 1601 1606 1606 1604 1604 1602 1601 1600 1597 1594 1592 1590 1588 1585 1582 1579 1574 1570 1566 1561 1556 1551 1546 1541 1537 1534 1529 1525 1521 1518 1515 1511 1508 1505 1502 1500 1502 1504 1502 1501 1506